Regional Weather Roundup
Issued by NWS

Home | Current Version | Previous Version | Text Only | Print | Product List | Glossary On
Versions: 1 2 3 4 5 6 7 8 9 10 11 12 13 14 15 16 17 18 19 20 21 22 23 24 25 26 27 28 29 30 31 32
000
ASUS45 KGTF 070710
RWRMT
MONTANA HOURLY WEATHER ROUNDUP
NATIONAL WEATHER SERVICE GREAT FALLS MT
100 AM MDT THU MAY 07 2015

NOTE: "FAIR" INDICATES FEW OR NO CLOUDS BELOW 12000 FEET WITH NO
SIGNIFICANT WEATHER AND/OR OBSTRUCTIONS TO VISIBILITY.

MTZ001>007-043-070800-
WEST OF THE DIVIDE

CITY           SKY/WX    TMP DP  RH WIND       PRES   REMARKS
KALISPELL      SUNNY     47  28  47 N15G25    29.99R
MISSOULA       CLOUDY    50  27  40 NE7       29.95R
BUTTE          CLOUDY    42  27  55 CALM      29.94R
DEER LODGE       N/A     46  21  36 N10       29.99R
EUREKA           N/A     36  28  75 CALM      30.02R
HAMILTON         N/A     50  28  43 N10       29.93R
LIBBY            N/A     37  27  65 CALM      30.00R
$$

MTZ008-052>055-070800-
SOUTHWEST MONTANA

CITY           SKY/WX    TMP DP  RH WIND       PRES   REMARKS
BOZEMAN        CLOUDY    49  30  48 CALM      29.90S
DILLON         CLOUDY    43  37  79 N8        29.87R
$$

MTZ009-010-012-014-046-048-049-054-070800-
EAST SLOPES AND CENTRAL MONTANA

CITY           SKY/WX    TMP DP  RH WIND       PRES   REMARKS
CUT BANK       MOCLDY    33  25  72 N10       30.11R WCI  25
GREAT FALLS    PTCLDY    38  26  62 NE16G25   30.05R WCI  29
MALMSTROM AFB  MOCLDY    38  29  69 NE16      30.06R WCI  30
HELENA         CLOUDY    47  29  49 N9        29.96R
$$

MTZ011-013-016-021-045-047-050-051-070800-
NORTH CENTRAL MONTANA

CITY           SKY/WX    TMP DP  RH WIND       PRES   REMARKS
HAVRE          PTCLDY    38  28  67 N13       30.07R WCI  30
LEWISTOWN      CLEAR     40  28  62 N6        30.01R
CHINOOK          N/A     37  28  70 NW9       30.07R WCI  31
FORT BENTON      N/A     41  27  56 N12       30.08R
$$

MTZ017>020-022>042-056>058-061-062-070800-
EASTERN PLAINS

CITY           SKY/WX    TMP DP  RH WIND       PRES   REMARKS
BAKER          CLOUDY    48  43  82 NW16      29.82S
BILLINGS       CLOUDY    49  32  52 NE6       29.95R
GLASGOW        CLEAR     41  31  67 NW13      29.95R
JORDAN           N/A     45  31  58 N9        29.95R
LIVINGSTON     CLOUDY    47  30  51 E17       29.93R
MILES CITY     CLOUDY    49  36  61 NW14      29.89R
SIDNEY         CLOUDY    52  41  66 NW17      29.83S
WOLF POINT     PTCLDY    49  34  56 NW14      29.91R
BIG TIMBER       N/A     45  30  57 NE3       29.98R
FORSYTH          N/A     48  36  61 NW8       29.93R
PLENTYWOOD       N/A     45  39  81 NW22      29.85R
POPLAR           N/A     48  37  66 NW14      29.89R
$$

REGIONAL REPORTS...DAKOTAS

CITY           SKY/WX    TMP DP  RH WIND       PRES   REMARKS
WILLISTON      CLOUDY    50  44  80 N16       29.80R
MINOT          CLOUDY    54  52  93 NW18G29   29.64S
DICKINSON      LGT RAIN  49  47  93 NW17      29.72R
BEACH          CLOUDY    46  46 100 N17G24    29.82S
CROSBY         CLOUDY    46  46 100 N18G28    29.80S
WATFORD CITY   CLOUDY    48  46  93 NW17G24   29.76R
BISMARCK       RAIN      57  56  96 W12       29.63S FOG
GRAND FORKS    MOCLDY    63  60  90 S16       29.63F
FARGO          CLOUDY    65  60  84 SE17G24   29.65F
BUFFALO SD       N/A     48  45  89 NW25G32   29.69S
RAPID CITY     CLOUDY    49  45  86 NW25G39   29.74R
$$

REGIONAL REPORTS...WYOMING/IDAHO/WASHINGTON

CITY           SKY/WX    TMP DP  RH WIND       PRES   REMARKS
GILLETTE       CLOUDY    45  40  82 NW10      29.89R
SHERIDAN       CLOUDY    46  39  76 W9        29.94R
BUFFALO WY     CLOUDY    45  36  70 NW21G29   29.93R
CODY           CLOUDY    45  30  57 N13G21    29.93R
YELLOWSTONE LA   N/A     33  31  92 NE5       29.91R
IDAHO FALLS    LGT RAIN  48  45  89 E7        29.82S
SALMON         CLOUDY    45  39  81 CALM      29.88R
BOISE          PTCLDY    47  31  53 W14       29.83R
SPOKANE        CLEAR     47  28  47 N6        29.97R
$$

REGIONAL REPORTS...ALBERTA

CITY           SKY/WX    TMP DP  RH WIND       PRES   REMARKS
EDMONTON       CLEAR     32  30  93 W8        30.12S WCI  25
CALGARY        MOCLDY    32  27  80 N8        30.14S WCI  25
MEDICINE HAT   CLEAR     34  27  75 NW8       30.13R WCI  27
$$

REGIONAL REPORTS...SASKATCHEWAN

CITY           SKY/WX    TMP DP  RH WIND       PRES   REMARKS
SWIFT CURRENT  CLOUDY    37  28  70 NW21G30   29.99R WCI  27
REGINA         CLOUDY    45  37  76 NW23G30   29.89R
SASKATOON      CLOUDY    39  34  81 NW13      29.97R WCI  32
$$



USA.gov is the U.S. government's official web portal to all federal, state and local government web resources and services.